Weather History for KCNB - April, 2014

Change the Weather History Date:

Saturday, April 12, 2014

  Actual Average (KMML) Record (KMML)
Temperature  
Mean Temperature 53 °F -  
Max Temperature 63 °F 55 °F 84 °F (1968)
Min Temperature 43 °F 33 °F 14 °F (1950)
Degree Days  
Heating Degree Days 12    
Growing Degree Days 3 (Base 50)    
Moisture  
Dew Point 42 °F    
Average Humidity 68    
Maximum Humidity 93    
Minimum Humidity 52    
Precipitation  
Precipitation 0.00 in - - ()
Sea Level Pressure  
Sea Level Pressure 29.72 in    
Wind  
Wind Speed 9 mph (ENE)    
Max Wind Speed 21 mph    
Max Gust Speed 26 mph    
Visibility 10 miles    
Events Rain    
Averages and records for this station are not official NWS values.
T = Trace of Precipitation, MM = Missing Value Source: NWS Daily Summary

Daily Weather History Graph

Daily Weather History Graph

Search for Another Location

Airport or City:

Trip Planner

Search our weather history database for the weather conditions in past years. The results will help you decide how hot, cold, wet, or windy it might be!

Date:

Astronomy

Apr. 12, 2014 Rise Set
Actual Time 6:45 AM CDT 8:06 PM CDT
Civil Twilight 6:15 AM CDT 8:36 PM CDT
Nautical Twilight 5:39 AM CDT 9:13 PM CDT
Astronomical Twilight 5:00 AM CDT 9:52 PM CDT
Moon 5:40 PM CDT (4/12) 5:19 AM CDT (4/12)
Length of Visible Light 14h 21m
Length of Day
13h 20m
Waxing Gibbous, 93% of the Moon is Illuminated
Apr 12
Waxing Gibbous
Apr 15
Full
Apr 22
Last Quarter
Apr 29
New
May 6
First Quarter

Hourly Weather History & Observations

Time (CDT) Temp. Windchill Dew Point Humidity Pressure Visibility Wind Dir Wind Speed Gust Speed Precip Events Conditions
12:14 AM 51.3 °F - 37.9 °F 60% 29.83 in 10.0 mi ESE 6.9 mph - N/A   Scattered Clouds
12:34 AM 50.9 °F - 37.8 °F 61% 29.82 in 10.0 mi ESE 9.2 mph - N/A   Scattered Clouds
12:54 AM 50.2 °F - 38.3 °F 64% 29.82 in 10.0 mi ESE 5.8 mph - N/A   Scattered Clouds
1:14 AM 49.5 °F - 38.5 °F 66% 29.80 in 10.0 mi East 8.1 mph - N/A   Mostly Cloudy
1:35 AM 49.1 °F - 38.7 °F 67% 29.79 in 10.0 mi East 8.1 mph - N/A   Overcast
1:54 AM 49.3 °F - 38.3 °F 66% 29.78 in 10.0 mi ESE 10.4 mph - N/A   Overcast
2:14 AM 49.8 °F - 37.6 °F 63% 29.78 in 10.0 mi East 10.4 mph - N/A   Overcast
2:35 AM 49.3 °F - 38.3 °F 66% 29.79 in 10.0 mi NNE 13.8 mph - N/A   Overcast
2:54 AM 49.6 °F - 37.4 °F 63% 29.75 in 10.0 mi ENE 17.3 mph - N/A   Overcast
3:14 AM 50.9 °F - 36.9 °F 59% 29.79 in 10.0 mi North 13.8 mph 24.2 mph N/A   Overcast
3:35 AM 50.0 °F - 37.4 °F 62% 29.73 in 10.0 mi ENE 20.7 mph 26.5 mph N/A   Overcast
3:54 AM 50.0 °F - 37.4 °F 62% 29.77 in 10.0 mi NNE 9.2 mph - N/A   Overcast
4:14 AM 47.8 °F - 39.2 °F 72% 29.75 in 10.0 mi ENE 12.7 mph - N/A Rain Light Rain
4:35 AM 46.4 °F 40.4 °F 39.4 °F 77% 29.75 in 10.0 mi ENE 13.8 mph - N/A Rain Light Rain
4:54 AM 46.2 °F 40.5 °F 39.4 °F 77% 29.74 in 10.0 mi ENE 12.7 mph - N/A   Overcast
5:15 AM 45.5 °F 39.2 °F 38.5 °F 76% 29.71 in 10.0 mi East 13.8 mph - N/A   Scattered Clouds
5:34 AM 45.5 °F 39.9 °F 38.1 °F 75% 29.70 in 10.0 mi East 11.5 mph - N/A   Clear
5:54 AM 44.8 °F 39.9 °F 37.8 °F 76% 29.72 in 10.0 mi East 9.2 mph - N/A   Clear
6:15 AM 43.9 °F 39.3 °F 37.6 °F 78% 29.71 in 10.0 mi East 8.1 mph - N/A   Clear
6:34 AM 44.6 °F 38.4 °F 37.0 °F 75% 29.69 in 10.0 mi East 12.7 mph - N/A   Clear
6:54 AM 43.7 °F 39.7 °F 37.0 °F 77% 29.69 in 10.0 mi East 6.9 mph - N/A   Clear
7:14 AM 43.7 °F 39.7 °F 37.4 °F 78% 29.70 in 10.0 mi East 6.9 mph - N/A   Clear
7:34 AM 43.7 °F 38.6 °F 37.4 °F 78% 29.70 in 10.0 mi East 9.2 mph - N/A   Clear
7:55 AM 44.4 °F 39.5 °F 37.6 °F 77% 29.70 in 10.0 mi East 9.2 mph - N/A   Clear
8:14 AM 44.8 °F 39.9 °F 38.3 °F 78% 29.71 in 10.0 mi East 9.2 mph - N/A   Clear
8:35 AM 45.7 °F 40.6 °F 38.5 °F 76% 29.71 in 10.0 mi East 10.4 mph - N/A   Clear
8:54 AM 46.6 °F - 39.0 °F 75% 29.71 in 10.0 mi East 8.1 mph - N/A   Clear
9:14 AM 47.5 °F - 39.4 °F 73% 29.70 in 10.0 mi East 10.4 mph - N/A   Clear
9:34 AM 49.3 °F - 40.1 °F 71% 29.70 in 10.0 mi ESE 11.5 mph - N/A   Clear
9:54 AM 50.5 °F - 41.0 °F 70% 29.70 in 10.0 mi ESE 9.2 mph - N/A   Clear
10:15 AM 50.9 °F - 41.0 °F 69% 29.70 in 10.0 mi East 9.2 mph - N/A   Clear
10:34 AM 52.5 °F - 41.7 °F 67% 29.70 in 10.0 mi East 8.1 mph - N/A   Clear
10:54 AM 53.8 °F - 41.9 °F 64% 29.70 in 10.0 mi ENE 5.8 mph - N/A   Clear
11:15 AM 54.5 °F - 41.9 °F 62% 29.71 in 10.0 mi ENE 4.6 mph - N/A   Clear
11:34 AM 55.4 °F - 42.3 °F 61% 29.71 in 10.0 mi East 8.1 mph - N/A   Clear
11:54 AM 55.2 °F - 43.0 °F 63% 29.71 in 10.0 mi ENE 6.9 mph - N/A   Clear
12:15 PM 56.7 °F - 43.2 °F 61% 29.71 in 10.0 mi ENE 6.9 mph - N/A   Clear
12:34 PM 56.7 °F - 43.0 °F 60% 29.70 in 10.0 mi ENE 6.9 mph - N/A   Clear
12:54 PM 57.9 °F - 43.2 °F 58% 29.70 in 10.0 mi ENE 5.8 mph - N/A   Clear
1:14 PM 57.7 °F - 44.2 °F 61% 29.70 in 10.0 mi NNE 4.6 mph - N/A   Clear
1:34 PM 59.0 °F - 43.7 °F 57% 29.70 in 10.0 mi ENE 4.6 mph - N/A   Clear
1:55 PM 59.2 °F - 43.9 °F 57% 29.69 in 10.0 mi ENE 10.4 mph - N/A   Clear
2:14 PM 60.4 °F - 44.6 °F 56% 29.69 in 10.0 mi NE 6.9 mph - N/A   Clear
2:34 PM 60.4 °F - 44.4 °F 56% 29.69 in 10.0 mi ENE 5.8 mph - N/A   Clear
2:55 PM 61.3 °F - 44.8 °F 55% 29.69 in 10.0 mi East 6.9 mph - N/A   Clear
3:14 PM 62.4 °F - 45.1 °F 53% 29.69 in 10.0 mi East 5.8 mph - N/A   Clear
3:34 PM 63.1 °F - 45.5 °F 53% 29.69 in 10.0 mi East 8.1 mph - N/A   Clear
3:55 PM 62.6 °F - 45.5 °F 54% 29.69 in 10.0 mi NE 5.8 mph - N/A   Clear
4:14 PM 63.3 °F - 45.1 °F 52% 29.69 in 10.0 mi NE 5.8 mph - N/A   Clear
4:34 PM 63.9 °F - 45.9 °F 52% 29.68 in 10.0 mi NNE 6.9 mph - N/A   Clear
4:54 PM 63.5 °F - 45.9 °F 53% 29.68 in 10.0 mi NNE 6.9 mph - N/A   Clear
5:14 PM 62.8 °F - 46.2 °F 55% 29.69 in 10.0 mi NNE 6.9 mph - N/A   Clear
5:35 PM 63.0 °F - 46.8 °F 55% 29.69 in 10.0 mi North 8.1 mph - N/A   Clear
5:54 PM 62.1 °F - 47.5 °F 59% 29.69 in 10.0 mi North 5.8 mph - N/A   Clear
6:14 PM 61.2 °F - 46.6 °F 59% 29.70 in 10.0 mi North 5.8 mph - N/A   Clear
6:34 PM 60.6 °F - 47.1 °F 61% 29.70 in 10.0 mi NNE 6.9 mph - N/A   Clear
6:54 PM 59.9 °F - 46.8 °F 62% 29.71 in 10.0 mi North 5.8 mph - N/A   Clear
7:15 PM 59.0 °F - 46.9 °F 64% 29.71 in 10.0 mi North 5.8 mph - N/A   Clear
7:34 PM 58.3 °F - 46.9 °F 66% 29.72 in 10.0 mi North 4.6 mph - N/A   Clear
7:54 PM 57.2 °F - 47.5 °F 70% 29.72 in 10.0 mi NNE 3.5 mph - N/A   Clear
8:15 PM 54.1 °F - 47.8 °F 79% 29.72 in 7.0 mi ENE 4.6 mph - N/A   Clear
8:34 PM 52.7 °F - 46.8 °F 80% 29.73 in 10.0 mi East 6.9 mph - N/A   Clear
8:54 PM 52.0 °F - 46.4 °F 81% 29.73 in 10.0 mi East 5.8 mph - N/A   Clear
9:14 PM 51.1 °F - 45.9 °F 82% 29.73 in 10.0 mi ENE 3.5 mph - N/A   Clear
9:34 PM 51.1 °F - 45.7 °F 82% 29.73 in 10.0 mi NNE 5.8 mph - N/A   Clear
9:55 PM 50.7 °F - 45.5 °F 82% 29.73 in 10.0 mi NE 4.6 mph - N/A   Clear
10:15 PM 50.2 °F - 45.0 °F 82% 29.73 in 10.0 mi NNE 3.5 mph - N/A   Clear
10:34 PM 46.4 °F 45.2 °F 43.0 °F 88% 29.73 in 10.0 mi NW 3.5 mph - N/A   Clear
10:54 PM 45.1 °F - 42.6 °F 91% 29.73 in 7.0 mi Calm Calm - N/A   Clear
11:14 PM 45.7 °F - 43.2 °F 91% 29.73 in 7.0 mi Calm Calm - N/A   Clear
11:34 PM 43.7 °F 41.1 °F 41.2 °F 91% 29.74 in 7.0 mi WNW 4.6 mph - N/A   Clear
11:55 PM 44.1 °F 42.5 °F 42.1 °F 93% 29.74 in 7.0 mi NW 3.5 mph - N/A   Clear